Tracking 29034 objects as of 25-Jun-2024
HD Live streaming from Space Station
objects crossing your sky now

COSMOS 1766

Track COSMOS 1766 now!
10-day predictions
COSMOS 1766 is classified as:


NORAD ID: 16881
Int'l Code: 1986-055A
Perigee: 493.6 km
Apogee: 508.4 km
Inclination: 82.5 °
Period: 94.5 minutes
Semi major axis: 6871 km
RCS: 9.3716 m2 (large)
Launch date: July 28, 1986
Source: Commonwealth of Independent States (former USSR) (CIS)
Launch site: PLESETSK MISSILE AND SPACE COMPLEX (PKMTR)
Your satellite tracking list
Your tracking list is empty




NASA's NSSDC Master Catalog

Two Line Element Set (TLE):
1 16881U 86055A   24176.64086081  .00007833  00000-0  32187-3 0  9996
2 16881  82.5000  24.4343 0010729 249.7572 110.2512 15.23980554 47933
Source of the keplerian elements: AFSPC